Location: Kirkland Lake
(48.1510°N, 80.0330°W)
Time: 08:54:55
(UTC-04:00)

ISS - Pass Details

Date: 24 April 2026
Orbit: 414 x 424 km, 51.6° (Epoch: 18 May)

Event Time Altitude Azimuth Distance (km) Brightness Sun altitude
Exits shadow 04:09:30 39° 161° (SSE) 639 -3.1 -18.1°
Maximum altitude 04:09:46 40° 147° (SSE) 628 -3.0 -18.1°
Drops below altitude 10° 04:12:58 10° 76° (ENE) 1,504 -0.1 -17.7°
Sets 04:15:08 0° 69° (ENE) 2,374 1.3 -17.4°
